Terug naar catalogus

STARLINK-36109

ActiefCommunicatieVLEO
NORAD 66943·PAYLOAD·🇺🇸 United States

Gelanceerd Dec 7, 2025 vanaf Vandenberg Space Force Base

Loading…

Volgende Passages (komende 24 uur)

TLE

VersSource: CelesTrak SupGP

Epoch: Sep 15, 2026, 02:32 UTC

1 66943C 25286U   26258.10604167 -.00083775  00000+0 -24751-2 0  2589
2 66943  53.1572 194.7559 0001267  93.8651 203.7588 15.34433269    15

Volg STARLINK-36109 in realtime met AllMySat

Download on the App Store